Location: Musselshell
(46.5176°N, 108.0911°W)
Time: 14:27:57
(UTC+00:00)

AO-91 - Pass Details

Date: 02 July 2022
Orbit: 450 x 798 km, 97.7° (Epoch: 07 August)

Event Time Altitude Azimuth Distance (km) Brightness Sun altitude
Rises 06:03:09 0° 13° (NNE) 2,524 ? -18.5°
Reaches altitude 10° 06:05:14 10° 14° (NNE) 1,617 ? -18.6°
Maximum altitude 06:08:40 84° 104° (ESE) 461 ? -18.8°
Enters shadow 06:09:09 63° 181° (S) 510 ? -18.8°
